Location: Franzen
(48.6167°N, 15.3833°E)
Time: 10:18:19
(UTC+00:00)

Cosmos 1244 Rocket - Pass Details

Date: 22 April 2021
Orbit: 954 x 997 km, 82.9° (Epoch: 16 May)

Event Time Altitude Azimuth Distance (km) Brightness Sun altitude
Rises 20:28:30 0° 351° (N) 3,731 8.6 -20.6°
Reaches altitude 10° 20:31:03 10° 352° (N) 2,776 7.7 -20.9°
Maximum altitude 20:37:27 82° 81° (E) 1,009 4.5 -21.6°
Enters shadow 20:39:59 39° 164° (SSE) 1,437 4.9 -21.8°
